Location: Falniów
(50.3639°N, 19.9642°E)
Time: 22:13:48
(UTC+00:00)

IRS-1D - Pass Details

Date: 18 January 2026
Orbit: 737 x 810 km, 98.8° (Epoch: 18 February)

Event Time Altitude Azimuth Distance (km) Brightness Sun altitude
Rises 03:36:08 0° 17° (NNE) 3,337 7.0 -27.4°
Reaches altitude 10° 03:38:31 10° 22° (NNE) 2,405 6.3 -27.1°
Maximum altitude 03:43:47 59° 102° (ESE) 937 4.1 -26.2°
Drops below altitude 10° 03:49:01 10° 181° (S) 2,387 6.0 -25.4°
Sets 03:51:22 0° 186° (S) 3,309 6.8 -25.0°
